Showing default

KUIPER-00072, 64819

Orbit data source: Space-Track

KUIPER-00072, 64819 is a payload satellite owned by Kuiper Systems (US) in LEO that was launched on Wed, 16 Jul 2025 UTC via an FALCON 9 launch vehicle from the Air Force Eastern Test Range (AFETR). Payload-class satellites include a variety of spacecraft equipped with specific instruments for various scientific and technological missions. These include communications satellites like Starlink; space stations such as the ISS; scientific satellites like the Hubble; Earth observation satellites from companies like Planet Labs, Umbra, and HawkEye 360; GPS; miniature CubeSats for education and research; and military/defense satellites.

Loading next visibility...
Identifier
64819, 2025-151D
Orbit
LEO
Country
Flag of USUS
Related business
Manufacturer
Kuiper Systems
Mission
Operational Commercial Communications
Bus & Motor
KUIPER, Unknown motor
Mass
~490 kg wet, ~490 kg dry
Launch date (UTC)
2025-07-16 (11 months ago)
Launch vehicle
FALCON 9
Launch site
Air Force Eastern Test Range (AFETR)
Object type
Payload
Rocket body
Debris
Shape & HBR
Box + 2 Pan, 3.4 m
Radar Cross Section
2.326 m², Large (>1 m²)

Expand to show TLE details & history
Last TLE update: 17 hours ago

TLE from 17 hours ago
0 KUIPER-00072
1 64819U 25151D   26166.42731795  .00001886  00000-0  27662-3 0  9990
2 64819  51.8964 210.8527 0000553  67.0340 293.0681 14.79887270 50020
Epoch: 2026-06-15T10:15Z
TLE epoch observation values (Epoch: 2026-06-15T10:15:20.270Z)
Latitude
-0.00001°
Longitude
153.30438°
Altitude
630.274 km
Speed
7.545 km/s
True Right ascension
14h 03m 24s
True Declination
0° 00' 00"
Sunlit
Object was in full shadow at epoch
Visualization orbit readout
Latitude
Unknown
Longitude
Unknown
Altitude
Unknown
Speed
Unknown
Apparent Right ascension
Unknown
Apparent Declination
Unknown
Sunlit
N/A
Visualization observer readout
Local Sidereal Time
13:37:13
Azimuth
Unknown
Elevation
Unknown
Doppler factor
Unknown
Orbital elements
Apogee altitude
630.519 km
Perigee altitude
629.744 km
Semi-major axis
7,008.269 km
Eccentricity
0.00006
Inclination
51.8964°
RAAN
210.8527°
Arg. of periapsis
67.034°
True anomaly
293.06227°
Mean anomaly
293.0681°
Eccentric anomaly
293.06518°
Mean motion
3.69936 °/min
Orbital period
97.31 mins
BSTAR
0.00027662
Loading maneuver chart data...
Computing Atmospheric mass density...
Loading historical data...
Loading historical data...
Loading historical data...
Loading historical data...
Loading historical data...
Loading historical data...
Loading historical data...

Documentation

Showing up to 5 results
|